• In Germany
  • List of Countries
  • For 7 days
  • Water Temperature
  • Satellite Maps
  • Weather Map
  • Weather Widgets
  • user-avatar
    Login

    Hourly Weather Manaus

    Today, 18 June, Monday

    Time Temperature Precipitation Wind Pressure Humidity
    00:00 +23°C° 0 mm 0 mps 759 mmHg 90%
    01:00 +22°C° 0 mm 0 mps 759 mmHg 91%
    02:00 +22°C° 0 mm 0 mps 758 mmHg 91%
    03:00 +22°C° 0 mm 0 mps 758 mmHg 90%
    04:00 +24°C° 0 mm 1 mps 758 mmHg 90%
    05:00 +24°C° 0 mm 1 mps 758 mmHg 89%
    06:00 +25°C° 0.1 mm 1 mps 759 mmHg 86%
    07:00 +26°C° 0.1 mm 1 mps 759 mmHg 83%
    08:00 +28°C° 0 mm 1 mps 759 mmHg 84%
    09:00 +28°C° 1.6 mm 1 mps 759 mmHg 84%
    10:00 +29°C° 1.6 mm 1 mps 759 mmHg 84%
    11:00 +29°C° 1.6 mm 1 mps 759 mmHg 85%
    12:00 +29°C° 1.4 mm 1 mps 758 mmHg 85%
    13:00 +29°C° 1.4 mm 1 mps 758 mmHg 86%
    14:00 +29°C° 1.4 mm 1 mps 757 mmHg 86%
    15:00 +29°C° 0.5 mm 1 mps 757 mmHg 88%
    16:00 +28°C° 0.5 mm 1 mps 757 mmHg 89%
    17:00 +27°C° 0.5 mm 1 mps 757 mmHg 91%
    18:00 +27°C° 0 mm 1 mps 757 mmHg 92%
    19:00 +26°C° 0 mm 1 mps 757 mmHg 93%
    20:00 +25°C° 0 mm 1 mps 757 mmHg 93%
    21:00 +25°C° 0.3 mm 1 mps 758 mmHg 94%
    22:00 +24°C° 0.3 mm 1 mps 758 mmHg 95%
    23:00 +22°C° 0.3 mm 0 mps 758 mmHg 95%

    Tomorrow, 19 June, Tuesday

    Time Temperature Precipitation Wind Pressure Humidity
    00:00 +22°C° 0.5 mm 0 mps 758 mmHg 96%
    01:00 +22°C° 0.5 mm 0 mps 758 mmHg 96%
    02:00 +22°C° 0.5 mm 0 mps 757 mmHg 97%
    03:00 +22°C° 0.3 mm 0 mps 757 mmHg 97%
    04:00 +22°C° 0.3 mm 0 mps 757 mmHg 96%
    05:00 +22°C° 0.3 mm 0 mps 757 mmHg 96%
    06:00 +23°C° 0 mm 0 mps 757 mmHg 94%
    07:00 +23°C° 0 mm 0 mps 757 mmHg 91%
    08:00 +24°C° 0 mm 0 mps 758 mmHg 88%
    09:00 +27°C° 0.1 mm 0 mps 758 mmHg 77%
    10:00 +31°C° 0.1 mm 1 mps 757 mmHg 67%
    11:00 +33°C° 0.1 mm 1 mps 757 mmHg 56%
    12:00 +34°C° 0 mm 1 mps 756 mmHg 53%
    13:00 +35°C° 0 mm 2 mps 756 mmHg 51%
    14:00 +36°C° 0 mm 2 mps 755 mmHg 49%
    15:00 +34°C° 0.1 mm 2 mps 755 mmHg 55%
    16:00 +32°C° 0.1 mm 1 mps 755 mmHg 60%
    17:00 +31°C° 0.1 mm 1 mps 754 mmHg 66%
    18:00 +30°C° 0.1 mm 1 mps 755 mmHg 70%
    19:00 +28°C° 0.1 mm 1 mps 755 mmHg 75%
    20:00 +27°C° 0.1 mm 1 mps 756 mmHg 80%
    21:00 +27°C° 0 mm 1 mps 756 mmHg 80%
    22:00 +27°C° 0 mm 1 mps 757 mmHg 80%
    23:00 +24°C° 0 mm 0 mps 757 mmHg 80%

    Day after tomorrow, 20 June, Wednesday

    Time Temperature Precipitation Wind Pressure Humidity
    00:00 +26°C° 0.3 mm 1 mps 757 mmHg 83%
    01:00 +25°C° 0.3 mm 1 mps 756 mmHg 86%
    02:00 +25°C° 0.3 mm 1 mps 756 mmHg 89%
    03:00 +24°C° 1.1 mm 1 mps 756 mmHg 92%
    04:00 +24°C° 1.1 mm 1 mps 756 mmHg 94%
    05:00 +22°C° 1.1 mm 0 mps 756 mmHg 97%
    06:00 +23°C° 0.9 mm 0 mps 757 mmHg 95%
    07:00 +24°C° 0.9 mm 0 mps 757 mmHg 94%
    08:00 +24°C° 0.9 mm 0 mps 758 mmHg 92%
    09:00 +25°C° 1.2 mm 0 mps 758 mmHg 89%
    10:00 +29°C° 1.2 mm 1 mps 758 mmHg 86%
    11:00 +30°C° 1.2 mm 1 mps 758 mmHg 84%
    12:00 +30°C° 0.9 mm 1 mps 757 mmHg 80%
    13:00 +30°C° 0.9 mm 1 mps 756 mmHg 76%
    14:00 +31°C° 0.9 mm 1 mps 755 mmHg 72%
    15:00 +30°C° 0.2 mm 1 mps 755 mmHg 73%
    16:00 +30°C° 0.2 mm 1 mps 755 mmHg 73%
    17:00 +30°C° 0.2 mm 1 mps 755 mmHg 74%
    18:00 +28°C° 0.4 mm 1 mps 755 mmHg 81%
    19:00 +27°C° 0.4 mm 1 mps 756 mmHg 87%
    20:00 +25°C° 0.4 mm 1 mps 757 mmHg 94%
    21:00 +25°C° 0.9 mm 1 mps 757 mmHg 94%
    22:00 +25°C° 0.9 mm 1 mps 757 mmHg 95%
    23:00 +25°C° 0.9 mm 1 mps 758 mmHg 96%

    21 June, Thursday

    Time Temperature Precipitation Wind Pressure Humidity
    00:00 +24°C° 0.1 mm 1 mps 757 mmHg 96%
    01:00 +24°C° 0.1 mm 1 mps 757 mmHg 96%
    02:00 +24°C° 0.1 mm 1 mps 756 mmHg 96%
    03:00 +24°C° 0 mm 1 mps 756 mmHg 96%
    04:00 +24°C° 0 mm 1 mps 756 mmHg 96%
    05:00 +24°C° 0 mm 1 mps 756 mmHg 96%
    06:00 +25°C° 0 mm 1 mps 757 mmHg 94%
    07:00 +25°C° 0 mm 1 mps 757 mmHg 92%
    08:00 +26°C° 0 mm 1 mps 758 mmHg 91%
    09:00 +28°C° 0.1 mm 1 mps 758 mmHg 80%
    10:00 +30°C° 0.1 mm 1 mps 758 mmHg 70%
    11:00 +32°C° 0.1 mm 1 mps 758 mmHg 59%
    12:00 +32°C° 0.6 mm 2 mps 757 mmHg 62%
    13:00 +32°C° 0.6 mm 2 mps 756 mmHg 65%
    14:00 +32°C° 0.6 mm 2 mps 755 mmHg 68%
    15:00 +31°C° 0.5 mm 1 mps 755 mmHg 74%
    16:00 +30°C° 0.5 mm 1 mps 755 mmHg 80%
    17:00 +29°C° 0.5 mm 1 mps 755 mmHg 86%
    18:00 +28°C° 0.4 mm 1 mps 756 mmHg 89%
    19:00 +27°C° 0.4 mm 1 mps 756 mmHg 92%
    20:00 +25°C° 0.4 mm 1 mps 757 mmHg 95%
    21:00 +25°C° 0.2 mm 1 mps 757 mmHg 96%
    22:00 +25°C° 0.2 mm 1 mps 758 mmHg 96%
    23:00 +25°C° 0.2 mm 1 mps 758 mmHg 97%

    22 June, Friday

    Time Temperature Precipitation Wind Pressure Humidity
    00:00 +22°C° 0 mm 0 mps 757 mmHg 97%
    01:00 +22°C° 0 mm 0 mps 757 mmHg 97%
    02:00 +22°C° 0 mm 0 mps 756 mmHg 97%
    03:00 +22°C° 0 mm 0 mps 756 mmHg 97%
    04:00 +22°C° 0 mm 0 mps 756 mmHg 97%
    05:00 +22°C° 0 mm 0 mps 756 mmHg 97%
    06:00 +23°C° 0 mm 0 mps 757 mmHg 95%
    07:00 +24°C° 0 mm 0 mps 757 mmHg 92%
    08:00 +25°C° 0 mm 0 mps 758 mmHg 89%
    09:00 +29°C° 0.1 mm 1 mps 757 mmHg 77%
    10:00 +31°C° 0.1 mm 1 mps 757 mmHg 66%
    11:00 +34°C° 0.1 mm 2 mps 757 mmHg 54%
    12:00 +34°C° 0.3 mm 2 mps 756 mmHg 56%
    13:00 +34°C° 0.3 mm 2 mps 755 mmHg 58%
    14:00 +34°C° 0.3 mm 2 mps 755 mmHg 61%
    15:00 +31°C° 0.8 mm 2 mps 755 mmHg 70%
    16:00 +30°C° 0.8 mm 1 mps 754 mmHg 80%
    17:00 +29°C° 0.8 mm 1 mps 754 mmHg 90%
    18:00 +28°C° 0.1 mm 1 mps 755 mmHg 92%
    19:00 +27°C° 0.1 mm 1 mps 755 mmHg 94%
    20:00 +24°C° 0.1 mm 0 mps 756 mmHg 96%
    21:00 +23°C° 0.1 mm 0 mps 756 mmHg 96%
    22:00 +23°C° 0.1 mm 0 mps 756 mmHg 96%
    23:00 +23°C° 0.1 mm 0 mps 756 mmHg 97%

    23 June, Saturday

    Time Temperature Precipitation Wind Pressure Humidity
    00:00 +23°C° 0 mm 0 mps 756 mmHg 97%
    01:00 +23°C° 0 mm 0 mps 755 mmHg 97%
    02:00 +22°C° 0 mm 0 mps 755 mmHg 97%
    03:00 +22°C° 0.1 mm 0 mps 755 mmHg 97%
    04:00 +22°C° 0.1 mm 0 mps 755 mmHg 97%
    05:00 +22°C° 0.1 mm 0 mps 755 mmHg 98%
    06:00 +23°C° 0.1 mm 0 mps 756 mmHg 95%
    07:00 +24°C° 0.1 mm 0 mps 756 mmHg 93%
    08:00 +25°C° 0.1 mm 0 mps 757 mmHg 91%
    09:00 +29°C° 0.2 mm 1 mps 756 mmHg 80%
    10:00 +31°C° 0.2 mm 1 mps 756 mmHg 69%
    11:00 +33°C° 0.2 mm 1 mps 756 mmHg 59%
    12:00 +33°C° 0.1 mm 1 mps 755 mmHg 57%
    13:00 +33°C° 0.1 mm 1 mps 754 mmHg 55%
    14:00 +34°C° 0.1 mm 1 mps 753 mmHg 53%
    15:00 +33°C° 0.1 mm 1 mps 753 mmHg 60%
    16:00 +32°C° 0.1 mm 1 mps 753 mmHg 66%
    17:00 +31°C° 0.1 mm 1 mps 753 mmHg 73%
    18:00 +29°C° 0.3 mm 1 mps 754 mmHg 79%
    19:00 +27°C° 0.3 mm 1 mps 754 mmHg 86%
    20:00 +26°C° 0.3 mm 1 mps 755 mmHg 93%
    21:00 +25°C° 0.1 mm 1 mps 755 mmHg 94%
    22:00 +25°C° 0.1 mm 1 mps 755 mmHg 94%
    23:00 +25°C° 0.1 mm 1 mps 756 mmHg 95%
    Show more